sat.trackr.live / text

‹ back to catalog

STARLINK-34799

NORAD 65472 · 2025-195Q

PAYLOAD ACTIVE UNKNOWN

§ Identity

Operator
Country
US
Launch date
2025-09-03
Launch site
AFETR
Launch vehicle
Mass (kg)
RCS (m²)

Purposes: comms

External: N2YO · Heavens-Above · Gunter

§ Orbital elements

Epoch: 2026-05-24T14:55:28.036128Z

Period
93.85 min
Inclination
53.1597°
Eccentricity
0.0001510
Mean motion
15.34377391 rev/d
Perigee alt
461.7 km
Apogee alt
463.8 km
Semi-major
6,840.9 km
B*
7.2054e-4
RAAN
265.1773°
Arg perigee
106.4037°
Mean anomaly
253.7132°
Rev number
4,160

§ Raw data

STARLINK-347991 65472U 25195Q   26144.62185227  .00024029  00000+0  72054-3 0  99932 65472  53.1597 265.1773 0001510 106.4037 253.7132 15.34377391 41602

JSON: /api/v1/satellites/65472 · /tle

For live sub-satellite position, see the globe view (requires WebGL).

§ Visibility from observer

Set your observer location to see the next 7 days of passes ≥ 10°. The values pass through the URL so the page stays shareable.

No JS? Fill the form by hand. The geolocation button needs JavaScript.